This is the latest recevied weather packets stored in our database for station/object DL3CSM-13. If no packets are shown the sender has not sent any weather packets the latest 10 day(s).
| Time | Temp. | Humidity | Pressure | Rain* | Wind** | Luminosity | Snow |
|---|---|---|---|---|---|---|---|
| 1777662911 | 14.44° C | 44% | 1025.6 hPa | 0 mm | - | - | - |
| 1777662011 | 15° C | 43% | 1025.7 hPa | 0 mm | - | - | - |
| 1777660211 | 16.11° C | 40% | 1025.4 hPa | 0 mm | - | - | - |
| 1777659311 | 16.67° C | 38% | 1025.2 hPa | 0 mm | - | - | - |
| 1777658412 | 16.67° C | 38% | 1025.2 hPa | 0 mm | - | - | - |
| 1777657511 | 17.22° C | 37% | 1025.3 hPa | 0 mm | - | - | - |
| 1777656611 | 17.78° C | 36% | 1025.1 hPa | 0 mm | - | - | - |
| 1777655711 | 18.33° C | 35% | 1025.1 hPa | 0 mm | - | - | - |
| 1777654811 | 19.44° C | 34% | 1025.2 hPa | 0 mm | - | - | - |
| 1777653911 | 19.44° C | 33% | 1025.2 hPa | 0 mm | - | - | - |
| 1777653011 | 20° C | 33% | 1025.4 hPa | 0 mm | - | - | - |
| 1777652111 | 20° C | 32% | 1025.5 hPa | 0 mm | - | - | - |
| 1777651211 | 20° C | 33% | 1025.5 hPa | 0 mm | - | - | - |
| 1777650311 | 20° C | 32% | 1025.5 hPa | 0 mm | - | - | - |
| 1777649411 | 20.56° C | 32% | 1025.7 hPa | 0 mm | - | - | - |
| 1777648511 | 20.56° C | 31% | 1025.8 hPa | 0 mm | - | - | - |
| 1777647611 | 21.11° C | 31% | 1025.9 hPa | 0 mm | - | - | - |
| 1777646712 | 21.11° C | 31% | 1025.9 hPa | 0 mm | - | - | - |
| 1777645811 | 21.11° C | 31% | 1025.9 hPa | 0 mm | - | - | - |
| 1777644911 | 21.11° C | 31% | 1026 hPa | 0 mm | - | - | - |
| 1777644011 | 21.11° C | 31% | 1026.1 hPa | 0 mm | - | - | - |
| 1777643111 | 21.11° C | 31% | 1026.1 hPa | 0 mm | - | - | - |
| 1777642211 | 20.56° C | 31% | 1026.4 hPa | 0 mm | - | - | - |
| 1777641311 | 20.56° C | 30% | 1026.4 hPa | 0 mm | - | - | - |
| 1777640411 | 20.56° C | 31% | 1026.6 hPa | 0 mm | - | - | - |
* Rain latest hour (hover to see other rain measurements)
** Current wind speed in m/s (hover to see current wind gust speed)